Погода в Бекетовской

Россия / Вологодская область     60°30′10″N   39°23′57″E
темп.,
°C
ветер,
м/с
пор.,
м/с
влажн.,
%
обл.,
%
осадки,
мм/ч
давл.,
гПа
погр.,
м
11 мая, вт
вт1100:00+9ююз31065100 0.0 1027300
03:00+8ююз396657 0.0 1028257
06:00+7ююз386635 0.0 1029228
09:00+14ююз364954 0.0 1029502
12:00+18юз45435 0.0 10281063
15:00+20юз344372 0.0 10281201
18:00+19ююз24520 0.0 1028857
21:00+12ю23811 0.0 102844
12 мая, ср
ср1200:00+10ю23895 0.0 102946
03:00+9ю22915 0.0 102935
06:00+11ююз13805 0.0 1029110
09:00+17ю22520 0.0 1029588
12:00+21ююв23380 0.0 10281167
15:00+23ю23330 0.0 10261442
18:00+21ююв23420 0.0 1025256
21:00+14юв22650 0.0 102520
13 мая, чт
чт1300:00+12юв23740 0.0 102549
03:00+11юв278737 0.1 1025140
06:00+14ююв28875 0.1 1024202
09:00+20ююв476010 0.1 1023817
12:00+22ю584996 0.0 10221929
15:00+22ю475196 0.1 10201921
18:00+19в24676 0.0 101884
21:00+15вюв28824 0.1 1017169
14 мая, пт
пт1400:00+13вюв2695100 0.4 1017131
03:00+13ююв399885 0.4 1017330
06:00+13ююз259374 0.0 1017332
09:00+17ююз35645 0.0 1018881
12:00+21юз354719 0.0 10171712
15:00+22ююз364013 0.0 10172247
18:00+20ююз3554100 0.0 1016911
21:00+14ю228135 0.0 101613
15 мая, сб
сб1500:00+13юв229294 0.0 101532
03:00+12вюв2893100 0.1 1014160
06:00+13в2796100 0.8 1012265
09:00+18ююв478288 0.9 1011749
12:00+22ююз475910 0.0 10101392
15:00+21ю466385 0.1 1008672
18:00+20ююв5876100 1.3 1006430
21:00+15ю2997100 7.0 1005215